GOSAT-GW (IBUKI GW)

Last updated on Wed Oct 29 2025 00:02:31 GMT+0000 (Coordinated Universal Time)

1 64694U 25141A 25301.44210690 .00001623 00000+0 29427-3 0 9997 2 64694 98.0351 237.7914 0001381 83.1405 276.9957 14.67572644 17856
UTC large
Height (km)
Speed (km/s)
/
Latitude / Longitude
Inclination (degrees)
Orbital Period (minutes)
Azimuth
Elevation
Range (km)
Doppler Factor

Next 0 passes for location: London (51.5072 / 0.1276)

Sorry there are no passes over London.